TimeCST,TemperatureF,Dew PointF,Humidity,Sea Level PressureIn,VisibilityMPH,Wind Direction,Wind SpeedMPH,Gust SpeedMPH,PrecipitationIn,Events,Conditions,WindDirDegrees,DateUTC
12:15 AM,28.0,14.5,57,30.35,10.0,South,3.5,-,N/A,,Clear,180,2013-02-02 06:15:00
12:55 AM,27.7,15.4,60,30.33,10.0,SE,6.9,-,N/A,,Clear,140,2013-02-02 06:55:00
1:15 AM,27.7,15.8,61,30.32,10.0,SE,5.8,-,N/A,,Clear,130,2013-02-02 07:15:00
1:55 AM,27.5,15.6,61,30.31,10.0,SE,5.8,-,N/A,,Clear,130,2013-02-02 07:55:00
2:15 AM,27.5,15.3,60,30.31,10.0,Calm,Calm,-,N/A,,Clear,0,2013-02-02 08:15:00
2:35 AM,27.5,14.9,59,30.31,10.0,SE,3.5,-,N/A,,Clear,130,2013-02-02 08:35:00
2:55 AM,27.5,15.3,60,30.30,10.0,South,4.6,-,N/A,,Clear,170,2013-02-02 08:55:00
3:15 AM,27.1,14.9,60,30.30,10.0,SSE,3.5,-,N/A,,Clear,160,2013-02-02 09:15:00
3:35 AM,27.7,14.4,57,30.29,10.0,SSE,5.8,-,N/A,,Clear,160,2013-02-02 09:35:00
3:55 AM,27.1,14.5,59,30.29,10.0,Calm,Calm,-,N/A,,Clear,0,2013-02-02 09:55:00
4:15 AM,26.8,14.9,61,30.29,10.0,South,4.6,-,N/A,,Clear,190,2013-02-02 10:15:00
4:35 AM,26.4,15.3,63,30.29,10.0,South,4.6,-,N/A,,Clear,180,2013-02-02 10:35:00
4:55 AM,26.4,15.6,64,30.29,10.0,South,4.6,-,N/A,,Clear,170,2013-02-02 10:55:00
5:15 AM,27.9,14.2,57,30.28,10.0,SE,5.8,-,N/A,,Clear,140,2013-02-02 11:15:00
5:35 AM,28.2,14.0,55,30.27,10.0,SE,8.1,-,N/A,,Clear,130,2013-02-02 11:35:00
5:55 AM,27.7,14.5,58,30.27,10.0,SSE,3.5,-,N/A,,Clear,150,2013-02-02 11:55:00
6:15 AM,27.3,14.5,59,30.26,10.0,SSE,6.9,-,N/A,,Clear,150,2013-02-02 12:15:00
6:35 AM,28.0,14.0,56,30.26,10.0,SSE,5.8,-,N/A,,Clear,150,2013-02-02 12:35:00
6:55 AM,28.0,14.5,57,30.26,10.0,SSE,8.1,-,N/A,,Clear,160,2013-02-02 12:55:00
7:15 AM,28.6,14.9,57,30.27,10.0,Calm,Calm,-,N/A,,Scattered Clouds,0,2013-02-02 13:15:00
7:35 AM,29.3,15.8,57,30.26,10.0,South,9.2,-,N/A,,Scattered Clouds,170,2013-02-02 13:35:00
7:55 AM,30.2,15.6,55,30.26,10.0,South,8.1,-,N/A,,Mostly Cloudy,180,2013-02-02 13:55:00
8:15 AM,32.0,15.4,51,30.28,10.0,South,4.6,-,N/A,,Mostly Cloudy,170,2013-02-02 14:15:00
8:35 AM,32.7,14.9,48,30.29,10.0,SSW,3.5,-,N/A,,Mostly Cloudy,200,2013-02-02 14:35:00
8:55 AM,33.1,14.4,46,30.30,10.0,SSW,3.5,-,N/A,Rain,Light Rain,200,2013-02-02 14:55:00
9:15 AM,33.3,16.2,50,30.28,10.0,South,6.9,-,N/A,,Mostly Cloudy,170,2013-02-02 15:15:00
9:35 AM,34.3,16.5,48,30.30,10.0,NNW,3.5,-,N/A,,Mostly Cloudy,340,2013-02-02 15:35:00
9:55 AM,34.7,17.2,49,30.28,7.0,SE,5.8,-,N/A,Rain,Light Rain,140,2013-02-02 15:55:00
10:15 AM,34.5,20.3,56,30.28,10.0,South,6.9,-,N/A,,Mostly Cloudy,170,2013-02-02 16:15:00
10:55 AM,36.1,21.9,56,30.26,10.0,South,9.2,-,N/A,,Mostly Cloudy,180,2013-02-02 16:55:00
11:15 AM,38.1,22.5,53,30.24,10.0,SSW,10.4,-,N/A,,Mostly Cloudy,200,2013-02-02 17:15:00
11:35 AM,39.6,22.5,50,30.22,10.0,South,9.2,-,N/A,,Mostly Cloudy,190,2013-02-02 17:35:00
11:55 AM,40.6,23.7,51,30.21,10.0,SSW,11.5,18.4,N/A,,Scattered Clouds,200,2013-02-02 17:55:00
12:15 PM,41.7,25.5,53,30.19,10.0,SSW,9.2,18.4,N/A,,Mostly Cloudy,210,2013-02-02 18:15:00
12:35 PM,43.7,26.8,51,30.18,10.0,SSW,8.1,-,N/A,,Mostly Cloudy,210,2013-02-02 18:35:00
12:55 PM,43.3,27.1,53,30.17,10.0,South,9.2,-,N/A,,Scattered Clouds,190,2013-02-02 18:55:00
1:15 PM,43.3,27.5,54,30.15,10.0,SSW,10.4,-,N/A,,Mostly Cloudy,200,2013-02-02 19:15:00
1:35 PM,42.6,28.6,58,30.17,10.0,SW,6.9,-,N/A,,Light Drizzle,220,2013-02-02 19:35:00
2:15 PM,41.2,30.7,66,30.17,10.0,SW,3.5,-,N/A,Rain,Light Rain,230,2013-02-02 20:15:00
2:35 PM,39.6,32.7,76,30.16,7.0,SSW,3.5,-,0.03,Rain,Light Rain,210,2013-02-02 20:35:00
2:55 PM,38.3,34.0,84,30.16,4.0,SSW,3.5,-,0.05,Rain,Rain,210,2013-02-02 20:55:00
3:15 PM,37.8,34.3,87,30.16,3.0,SSW,3.5,-,0.04,Rain,Rain,210,2013-02-02 21:15:00
3:35 PM,37.4,35.2,92,30.16,2.5,SSW,4.6,-,0.07,Rain,Rain,200,2013-02-02 21:35:00
3:55 PM,37.0,35.2,93,30.18,1.8,Calm,Calm,-,0.13,Rain,Heavy Rain,0,2013-02-02 21:55:00
4:15 PM,37.0,35.6,95,30.16,4.0,Calm,Calm,-,0.01,Rain,Light Rain,0,2013-02-02 22:15:00
4:35 PM,37.8,36.5,95,30.14,10.0,South,8.1,-,0.01,,Mostly Cloudy,190,2013-02-02 22:35:00
4:55 PM,38.8,37.4,95,30.13,10.0,SSW,5.8,-,0.01,,Scattered Clouds,200,2013-02-02 22:55:00
5:15 PM,38.7,37.4,95,30.14,10.0,Calm,Calm,-,N/A,,Scattered Clouds,0,2013-02-02 23:15:00
5:35 PM,38.1,37.0,96,30.14,10.0,Calm,Calm,-,N/A,,Clear,0,2013-02-02 23:35:00
5:55 PM,37.0,36.5,98,30.15,10.0,Calm,Calm,-,N/A,,Clear,0,2013-02-02 23:55:00
6:15 PM,35.6,35.1,98,30.15,5.0,Calm,Calm,-,N/A,,Clear,0,2013-02-03 00:15:00
6:35 PM,34.5,34.2,99,30.15,3.0,Calm,Calm,-,N/A,,Clear,0,2013-02-03 00:35:00
6:55 PM,34.2,34.0,99,30.16,0.5,Calm,Calm,-,N/A,Fog,Fog,0,2013-02-03 00:55:00
7:15 PM,34.9,34.7,99,30.16,4.0,SSW,3.5,-,N/A,,Clear,200,2013-02-03 01:15:00
7:35 PM,35.8,35.6,99,30.17,5.0,Calm,Calm,-,N/A,,Scattered Clouds,0,2013-02-03 01:35:00
7:55 PM,37.0,36.9,99,30.18,2.5,West,4.6,-,N/A,,Overcast,280,2013-02-03 01:55:00
8:15 PM,37.6,37.6,100,30.18,3.0,West,3.5,-,N/A,,Overcast,260,2013-02-03 02:15:00
8:35 PM,36.9,36.7,99,30.19,4.0,West,3.5,-,N/A,,Scattered Clouds,270,2013-02-03 02:35:00
8:55 PM,36.0,35.8,99,30.19,4.0,Calm,Calm,-,N/A,,Clear,0,2013-02-03 02:55:00
9:15 PM,35.4,35.2,99,30.20,3.0,Calm,Calm,-,N/A,,Mist,0,2013-02-03 03:15:00
9:35 PM,35.1,34.9,99,30.19,3.0,Calm,Calm,-,N/A,,Mist,0,2013-02-03 03:35:00
9:55 PM,35.1,35.1,100,30.18,0.8,Calm,Calm,-,N/A,,Overcast,0,2013-02-03 03:55:00
10:15 PM,35.6,35.4,99,30.19,0.8,Calm,Calm,-,N/A,,Overcast,0,2013-02-03 04:15:00
10:55 PM,34.5,34.3,99,30.19,1.2,Calm,Calm,-,N/A,,Mist,0,2013-02-03 04:55:00
11:15 PM,33.3,33.3,100,30.19,0.8,Calm,Calm,-,N/A,,Mist,0,2013-02-03 05:15:00
11:35 PM,33.1,32.9,99,30.19,0.8,Calm,Calm,-,0.01,,Overcast,0,2013-02-03 05:35:00
11:55 PM,34.0,34.0,100,30.18,0.2,Calm,Calm,-,0.01,Fog,Fog,0,2013-02-03 05:55:00